TimeEDT,TemperatureF,Dew PointF,Humidity,Sea Level PressureIn,VisibilityMPH,Wind Direction,Wind SpeedMPH,Gust SpeedMPH,PrecipitationIn,Events,Conditions,WindDirDegrees,DateUTC
12:54 AM,48.0,30.0,50,30.03,10.0,NNW,8.1,-,N/A,,Clear,340,2013-04-06 04:54:00
1:54 AM,48.9,25.0,39,30.05,10.0,North,8.1,-,N/A,,Clear,350,2013-04-06 05:54:00
2:54 AM,46.0,21.9,39,30.06,10.0,North,5.8,-,N/A,,Clear,350,2013-04-06 06:54:00
3:54 AM,44.1,25.0,47,30.10,10.0,North,6.9,-,N/A,,Clear,360,2013-04-06 07:54:00
4:54 AM,42.1,25.0,51,30.14,10.0,Calm,Calm,-,N/A,,Clear,0,2013-04-06 08:54:00
5:54 AM,39.9,25.0,55,30.18,10.0,NNW,8.1,-,N/A,,Clear,340,2013-04-06 09:54:00
6:54 AM,39.9,23.0,51,30.22,10.0,North,4.6,-,N/A,,Clear,360,2013-04-06 10:54:00
7:54 AM,43.0,23.0,45,30.26,10.0,North,4.6,-,N/A,,Clear,350,2013-04-06 11:54:00
8:54 AM,46.0,25.0,44,30.28,10.0,NNE,8.1,-,N/A,,Clear,20,2013-04-06 12:54:00
9:54 AM,48.0,25.0,41,30.30,10.0,North,6.9,-,N/A,,Clear,360,2013-04-06 13:54:00
10:54 AM,48.9,21.0,33,30.32,10.0,NNE,9.2,19.6,N/A,,Clear,20,2013-04-06 14:54:00
11:54 AM,50.0,21.0,32,30.33,10.0,North,9.2,-,N/A,,Clear,10,2013-04-06 15:54:00
12:54 PM,52.0,19.9,28,30.32,10.0,East,6.9,-,N/A,,Clear,80,2013-04-06 16:54:00
1:54 PM,54.0,19.9,26,30.32,10.0,North,9.2,-,N/A,,Clear,350,2013-04-06 17:54:00
2:54 PM,55.9,19.9,25,30.30,10.0,Variable,5.8,-,N/A,,Clear,0,2013-04-06 18:54:00
3:22 PM,55.4,19.4,25,30.29,10.0,Variable,4.6,-,N/A,,Scattered Clouds,0,2013-04-06 19:22:00
3:54 PM,55.0,18.0,23,30.29,10.0,SE,4.6,-,N/A,,Unknown,140,2013-04-06 19:54:00
4:54 PM,55.9,21.9,27,30.28,10.0,ESE,10.4,-,N/A,,Unknown,110,2013-04-06 20:54:00
5:54 PM,51.1,26.1,38,30.30,10.0,SE,10.4,-,N/A,,Unknown,130,2013-04-06 21:54:00
6:54 PM,46.9,21.9,37,30.32,10.0,SE,8.1,-,N/A,,Unknown,140,2013-04-06 22:54:00
7:54 PM,43.0,25.0,49,30.33,10.0,SE,3.5,-,N/A,,Unknown,140,2013-04-06 23:54:00
8:54 PM,39.9,28.9,65,30.35,10.0,SE,3.5,-,N/A,,Unknown,130,2013-04-07 00:54:00
9:54 PM,39.0,28.9,67,30.35,10.0,Calm,Calm,-,N/A,,Unknown,0,2013-04-07 01:54:00
10:54 PM,37.0,28.9,73,30.35,10.0,Calm,Calm,-,N/A,,Unknown,0,2013-04-07 02:54:00
11:54 PM,36.0,28.9,76,30.34,10.0,Calm,Calm,-,N/A,,Unknown,0,2013-04-07 03:54:00